This is the latest recevied weather packets stored in our database for station/object 9W2CHF-4. If no packets are shown the sender has not sent any weather packets the latest 10 day(s).
| Time | Temp. | Humidity | Pressure | Rain* | Wind** | Luminosity | Snow |
|---|---|---|---|---|---|---|---|
| 1777869513 | 33.33° C | 81% | 1011.9 hPa | - | - | - | - |
| 1777868613 | 33.33° C | 78% | 1012 hPa | - | - | - | - |
| 1777867713 | 33.33° C | 77% | 1012 hPa | - | - | - | - |
| 1777866812 | 33.33° C | 75% | 1012.1 hPa | - | - | - | - |
| 1777865912 | 33.33° C | 75% | 1012.1 hPa | - | - | - | - |
| 1777865012 | 33.33° C | 75% | 1012 hPa | - | - | - | - |
| 1777864112 | 32.78° C | 77% | 1012.2 hPa | - | - | - | - |
| 1777863212 | 32.78° C | 78% | 1012.2 hPa | - | - | - | - |
| 1777862312 | 32.22° C | 82% | 1012.2 hPa | - | - | - | - |
| 1777861412 | 32.22° C | 83% | 1012.3 hPa | - | - | - | - |
| 1777860512 | 32.22° C | 84% | 1012.2 hPa | - | - | - | - |
| 1777859612 | 32.22° C | 83% | 1012.2 hPa | - | - | - | - |
| 1777858711 | 32.78° C | 81% | 1012.2 hPa | - | - | - | - |
| 1777857811 | 32.78° C | 80% | 1011.9 hPa | - | - | - | - |
| 1777856910 | 32.22° C | 81% | 1011.8 hPa | - | - | - | - |
| 1777856010 | 32.22° C | 82% | 1011.5 hPa | - | - | - | - |
| 1777855110 | 32.22° C | 80% | 1011.4 hPa | - | - | - | - |
| 1777854209 | 32.22° C | 79% | 1011.2 hPa | - | - | - | - |
| 1777853309 | 32.22° C | 79% | 1011 hPa | - | - | - | - |
| 1777852409 | 31.67° C | 80% | 1010.8 hPa | - | - | - | - |
| 1777851509 | 32.22° C | 79% | 1010.7 hPa | - | - | - | - |
| 1777850609 | 32.22° C | 78% | 1010.5 hPa | - | - | - | - |
| 1777849709 | 32.22° C | 76% | 1010.3 hPa | - | - | - | - |
| 1777848809 | 32.22° C | 78% | 1010.3 hPa | - | - | - | - |
| 1777847909 | 31.67° C | 80% | 1010.2 hPa | - | - | - | - |
* Rain since midnight (hover to see other rain measurements)
** Current wind speed in m/s (hover to see current wind gust speed)